Regional Weather Roundup
Issued by NWS Sioux Falls, SD

Home | Current Version | Previous Version | Graphics & Text | Print | Product List | Glossary On
Versions: 1 2 3 4 5 6 7 8 9 10 11 12 13 14 15 16 17 18 19 20 21 22 23 24 25 26 27 28 29 30 31 32 33 34 35 36 37 38 39 40 41 42 43 44 45 46 47 48 49 50
000
ASUS43 KFSD 250102
RWRFSD

WEATHER ROUNDUP FOR SE SOUTH DAKOTA/SW MINNESOTA/NW IOWA
NATIONAL WEATHER SERVICE SIOUX FALLS SD
800 PM CDT SAT JUN 24 2017

NOTE: "FAIR" INDICATES FEW OR NO CLOUDS BELOW 12,000 FEET WITH NO
SIGNIFICANT WEATHER AND OR OBSTRUCTIONS TO VISIBILITY.


SDZ038>040-050-052>070-250200-
SOUTHEAST SOUTH DAKOTA

CITY           SKY/WX    TMP DP  RH WIND       PRES   REMARKS
BROOKINGS      MOSUNNY   62  41  46 NW18      30.16R
CHAMBERLAIN    SUNNY     71  37  28 NW14G21   30.19R
HURON          SUNNY     64  41  42 N20       30.18R
MADISON        FAIR      61  39  44 NW17G25   30.16S
MITCHELL       SUNNY     68  38  33 N16G26    30.17R
SIOUX FALLS    MOSUNNY   66  42  41 NW17G24   30.14R
WINNER         FAIR      73  31  21 N15G22    30.20R
YANKTON        SUNNY     70  35  27 NW17      30.15R
$$

MNZ071-072-080-081-089-090-097-098-250200-
SOUTHWEST MINNESOTA

CITY           SKY/WX    TMP DP  RH WIND       PRES   REMARKS
FAIRMONT       PTCLDY    64  41  42 NW13      30.10S
JACKSON        CLEAR     63  36  36 NW16G24   30.12R
MARSHALL       CLOUDY    62  41  46 NW18      30.12R
MONTEVIDEO     MOSUNNY   64  43  45 N16G24    30.11S
PIPESTONE      SUNNY     64  37  36 N18G25    30.14R
REDWOOD FALLS  MOCLDY    63  41  44 NW13G21   30.09R
TRACY          MOSUNNY   63  42  45 NW16      30.13R
WINDOM         CLEAR     63  39  42 NW13      30.12R
WORTHINGTON    CLEAR     63  40  42 NW17G23   30.13S
$$

IAZ001>003-012>014-020>022-031-032-NEZ013-014-SDZ071-250200-
NORTHWEST IOWA

CITY           SKY/WX    TMP DP  RH WIND       PRES   REMARKS
CHEROKEE       CLEAR     68  40  36 N12G23    30.12R
DENISON        CLEAR     72  39  30 NW12G21   30.13R
ESTHERVILLE    CLEAR     63  39  41 NW17G23   30.11R
LE MARS        SUNNY     70  39  32 N13G26    30.13R
ORANGE CITY    SUNNY     66  43  42 N12G17    30.13R
SHELDON        CLEAR     66  39  37 NW20G25   30.11S
SIOUX CITY     SUNNY     73  38  27 NW16      30.11R
SPENCER        CLEAR     66  40  38 NW18G28   30.12R
STORM LAKE     CLEAR     68  37  32 NW16G25   30.12R
$$

ABBREVIATIONS USED IN REMARKS
   TC - TEMPERATURE IN CELSIUS
  WCI - WIND CHILL INDEX
   HX - HEAT INDEX
  VSB - VISIBILITY





USA.gov is the U.S. government's official web portal to all federal, state and local government web resources and services.